Location: Doschendorf
(50.0069°N, 11.0602°E)
Time: 07:49:41
(UTC+00:00)

CZ-2D R/B - Pass Details

Date: 17 November 2019
Orbit: 521 x 540 km, 97.4° (Epoch: 12 December)

Event Time Altitude Azimuth Distance (km) Brightness Sun altitude
Exits shadow 18:03:45 35° 342° (NNW) 882 4.4 -24.5°
Drops below altitude 10° 18:06:06 10° 346° (NNW) 1,807 6.1 -24.9°
Sets 18:08:14 0° 347° (NNW) 2,701 7.0 -25.2°
